User: anonymous   Login
Location: Vancouver
(49.2500°N, 123.1330°W)
Time: 19:24:22
(UTC-08:00)
Language:

Iridium 21 - Orbit

View from above orbital plane
View from above orbital plane
View from above satellite
View from above satellite

Ground track
Ground track

The orbit data is extracted from the following two-line orbital elements,

1 25778U 99032B   15026.53437312  .00000091  00000-0  25515-4 0   751
2 25778 086.3940 228.7012 0002201 102.5156 312.6224 14.34222180823031
Epoch (UTC): 26 January 2015 12:49:29
Eccentricity: 0.0002201
inclination: 86.3940°
perigee height: 776 km
apogee height: 779 km
right ascension of ascending node: 228.7012°
argument of perigee: 102.5156°
revolutions per day: 14.34222180
mean anomaly at epoch: 312.6224°
orbit number at epoch: 82303

The dashed part of the orbit path shows where the satellite is in the earth's shadow,  

DLR